iso_date,epoch_date,Year,Hour,Min,DOY,POS_DOY,Lat,Lon,BP,Ts,Ta,has_bp,has_ts,has_ta,BuoyID,Buoy_Type,Buoy_Owner,Logistics,Hemisphere
2020-02-03T00:00:00Z,1580688000,2020,0,0,34.0,34.0,-77.273,-161.749,-999.00,-0.44,-999.0,no,yes,no,300234068240820,SVPGHI,AOML,LAURA_BASSI,South
2020-02-03T01:00:02Z,1580691603,2020,1,0,34.0417,34.0417,-77.271,-161.724,-999.00,-0.41,-999.0,no,yes,no,300234068240820,SVPGHI,AOML,LAURA_BASSI,South
2020-02-03T01:59:57Z,1580695197,2020,2,0,34.0833,34.0833,-77.263,-161.707,-999.00,-0.44,-999.0,no,yes,no,300234068240820,SVPGHI,AOML,LAURA_BASSI,South
2020-02-03T03:00:00Z,1580698800,2020,3,0,34.125,34.125,-77.256,-161.702,-999.00,-0.48,-999.0,no,yes,no,300234068240820,SVPGHI,AOML,LAURA_BASSI,South
2020-02-03T04:00:02Z,1580702403,2020,4,0,34.1667,34.1667,-77.248,-161.7,-999.00,-0.88,-999.0,no,yes,no,300234068240820,SVPGHI,AOML,LAURA_BASSI,South
2020-02-03T04:59:57Z,1580705997,2020,5,0,34.2083,34.2083,-77.242,-161.692,-999.00,-0.9,-999.0,no,yes,no,300234068240820,SVPGHI,AOML,LAURA_BASSI,South
2020-02-03T06:00:00Z,1580709600,2020,6,0,34.25,34.25,-77.234,-161.689,-999.00,-0.97,-999.0,no,yes,no,300234068240820,SVPGHI,AOML,LAURA_BASSI,South
2020-02-03T07:00:02Z,1580713203,2020,7,0,34.2917,34.2917,-77.228,-161.707,-999.00,-1.0,-999.0,no,yes,no,300234068240820,SVPGHI,AOML,LAURA_BASSI,South
2020-02-03T07:59:57Z,1580716797,2020,8,0,34.3333,34.3333,-77.222,-161.727,-999.00,-1.05,-999.0,no,yes,no,300234068240820,SVPGHI,AOML,LAURA_BASSI,South
2020-02-03T09:00:00Z,1580720400,2020,9,0,34.375,34.375,-77.218,-161.753,-999.00,-0.97,-999.0,no,yes,no,300234068240820,SVPGHI,AOML,LAURA_BASSI,South
2020-02-03T10:00:02Z,1580724003,2020,10,0,34.4167,34.4167,-77.217,-161.787,-999.00,-1.11,-999.0,no,yes,no,300234068240820,SVPGHI,AOML,LAURA_BASSI,South
2020-02-03T10:59:57Z,1580727597,2020,11,0,34.4583,34.4583,-77.217,-161.826,-999.00,-1.16,-999.0,no,yes,no,300234068240820,SVPGHI,AOML,LAURA_BASSI,South
2020-02-03T12:00:00Z,1580731200,2020,12,0,34.5,34.5,-77.218,-161.855,-999.00,-1.13,-999.0,no,yes,no,300234068240820,SVPGHI,AOML,LAURA_BASSI,South
2020-02-03T13:00:02Z,1580734803,2020,13,0,34.5417,34.5417,-77.219,-161.873,-999.00,-1.22,-999.0,no,yes,no,300234068240820,SVPGHI,AOML,LAURA_BASSI,South
2020-02-03T13:59:57Z,1580738397,2020,14,0,34.5833,34.5833,-77.221,-161.878,-999.00,-1.1,-999.0,no,yes,no,300234068240820,SVPGHI,AOML,LAURA_BASSI,South
2020-02-03T15:00:00Z,1580742000,2020,15,0,34.625,34.625,-77.222,-161.882,-999.00,-1.3,-999.0,no,yes,no,300234068240820,SVPGHI,AOML,LAURA_BASSI,South
2020-02-03T16:00:02Z,1580745603,2020,16,0,34.6667,34.6667,-77.222,-161.874,-999.00,-0.96,-999.0,no,yes,no,300234068240820,SVPGHI,AOML,LAURA_BASSI,South
2020-02-03T16:59:57Z,1580749197,2020,17,0,34.7083,34.7083,-77.22,-161.857,-999.00,-0.94,-999.0,no,yes,no,300234068240820,SVPGHI,AOML,LAURA_BASSI,South
2020-02-03T18:00:00Z,1580752800,2020,18,0,34.75,34.75,-77.219,-161.843,-999.00,-0.92,-999.0,no,yes,no,300234068240820,SVPGHI,AOML,LAURA_BASSI,South
2020-02-03T19:00:02Z,1580756403,2020,19,0,34.7917,34.7917,-77.217,-161.834,-999.00,-0.92,-999.0,no,yes,no,300234068240820,SVPGHI,AOML,LAURA_BASSI,South
2020-02-03T19:59:57Z,1580759997,2020,20,0,34.8333,34.8333,-77.215,-161.824,-999.00,-0.9,-999.0,no,yes,no,300234068240820,SVPGHI,AOML,LAURA_BASSI,South
2020-02-03T21:00:00Z,1580763600,2020,21,0,34.875,34.875,-77.213,-161.828,-999.00,-0.89,-999.0,no,yes,no,300234068240820,SVPGHI,AOML,LAURA_BASSI,South
2020-02-03T22:00:02Z,1580767203,2020,22,0,34.9167,34.9167,-77.212,-161.827,-999.00,-0.87,-999.0,no,yes,no,300234068240820,SVPGHI,AOML,LAURA_BASSI,South
2020-02-03T22:59:57Z,1580770797,2020,23,0,34.9583,34.9583,-77.213,-161.829,-999.00,-1.23,-999.0,no,yes,no,300234068240820,SVPGHI,AOML,LAURA_BASSI,South
2020-02-04T00:00:00Z,1580774400,2020,0,0,35.0,35.0,-77.215,-161.829,-999.00,-1.11,-999.0,no,yes,no,300234068240820,SVPGHI,AOML,LAURA_BASSI,South
2020-02-04T01:00:02Z,1580778003,2020,1,0,35.0417,35.0417,-77.217,-161.83,-999.00,-1.4,-999.0,no,yes,no,300234068240820,SVPGHI,AOML,LAURA_BASSI,South
2020-02-04T01:59:57Z,1580781597,2020,2,0,35.0833,35.0833,-77.218,-161.825,-999.00,-1.14,-999.0,no,yes,no,300234068240820,SVPGHI,AOML,LAURA_BASSI,South
2020-02-04T03:00:00Z,1580785200,2020,3,0,35.125,35.125,-77.217,-161.817,-999.00,-1.06,-999.0,no,yes,no,300234068240820,SVPGHI,AOML,LAURA_BASSI,South
2020-02-04T04:00:02Z,1580788803,2020,4,0,35.1667,35.1667,-77.215,-161.81,-999.00,-1.02,-999.0,no,yes,no,300234068240820,SVPGHI,AOML,LAURA_BASSI,South
2020-02-04T04:59:57Z,1580792397,2020,5,0,35.2083,35.2083,-77.212,-161.802,-999.00,-1.25,-999.0,no,yes,no,300234068240820,SVPGHI,AOML,LAURA_BASSI,South
2020-02-04T06:00:00Z,1580796000,2020,6,0,35.25,35.25,-77.204,-161.792,-999.00,-1.24,-999.0,no,yes,no,300234068240820,SVPGHI,AOML,LAURA_BASSI,South
2020-02-04T07:00:02Z,1580799603,2020,7,0,35.2917,35.2917,-77.196,-161.807,-999.00,-1.11,-999.0,no,yes,no,300234068240820,SVPGHI,AOML,LAURA_BASSI,South
2020-02-04T07:59:57Z,1580803197,2020,8,0,35.3333,35.3333,-77.189,-161.831,-999.00,-1.22,-999.0,no,yes,no,300234068240820,SVPGHI,AOML,LAURA_BASSI,South
2020-02-04T09:00:00Z,1580806800,2020,9,0,35.375,35.375,-77.183,-161.863,-999.00,-1.12,-999.0,no,yes,no,300234068240820,SVPGHI,AOML,LAURA_BASSI,South
2020-02-04T10:00:02Z,1580810403,2020,10,0,35.4167,35.4167,-77.178,-161.898,-999.00,-1.11,-999.0,no,yes,no,300234068240820,SVPGHI,AOML,LAURA_BASSI,South
2020-02-04T10:59:57Z,1580813997,2020,11,0,35.4583,35.4583,-77.175,-161.931,-999.00,-1.12,-999.0,no,yes,no,300234068240820,SVPGHI,AOML,LAURA_BASSI,South
2020-02-04T12:00:00Z,1580817600,2020,12,0,35.5,35.5,-77.171,-161.954,-999.00,-1.1,-999.0,no,yes,no,300234068240820,SVPGHI,AOML,LAURA_BASSI,South
2020-02-04T13:00:02Z,1580821203,2020,13,0,35.5417,35.5417,-77.168,-161.972,-999.00,-1.17,-999.0,no,yes,no,300234068240820,SVPGHI,AOML,LAURA_BASSI,South
2020-02-04T13:59:57Z,1580824797,2020,14,0,35.5833,35.5833,-77.163,-161.987,-999.00,-1.13,-999.0,no,yes,no,300234068240820,SVPGHI,AOML,LAURA_BASSI,South
2020-02-04T15:00:00Z,1580828400,2020,15,0,35.625,35.625,-77.158,-161.997,-999.00,-1.38,-999.0,no,yes,no,300234068240820,SVPGHI,AOML,LAURA_BASSI,South
2020-02-04T16:00:02Z,1580832003,2020,16,0,35.6667,35.6667,-77.151,-162.006,-999.00,-1.07,-999.0,no,yes,no,300234068240820,SVPGHI,AOML,LAURA_BASSI,South
2020-02-04T16:59:57Z,1580835597,2020,17,0,35.7083,35.7083,-77.142,-162.022,-999.00,-1.08,-999.0,no,yes,no,300234068240820,SVPGHI,AOML,LAURA_BASSI,South
2020-02-04T18:00:00Z,1580839200,2020,18,0,35.75,35.75,-77.131,-162.046,-999.00,-1.03,-999.0,no,yes,no,300234068240820,SVPGHI,AOML,LAURA_BASSI,South
2020-02-04T19:00:02Z,1580842803,2020,19,0,35.7917,35.7917,-77.119,-162.072,-999.00,-1.0,-999.0,no,yes,no,300234068240820,SVPGHI,AOML,LAURA_BASSI,South
2020-02-04T19:59:57Z,1580846397,2020,20,0,35.8333,35.8333,-77.105,-162.113,-999.00,-0.93,-999.0,no,yes,no,300234068240820,SVPGHI,AOML,LAURA_BASSI,South
2020-02-04T21:00:00Z,1580850000,2020,21,0,35.875,35.875,-77.092,-162.159,-999.00,-0.87,-999.0,no,yes,no,300234068240820,SVPGHI,AOML,LAURA_BASSI,South
2020-02-04T22:00:02Z,1580853603,2020,22,0,35.9167,35.9167,-77.082,-162.207,-999.00,-0.89,-999.0,no,yes,no,300234068240820,SVPGHI,AOML,LAURA_BASSI,South
2020-02-04T22:59:57Z,1580857197,2020,23,0,35.9583,35.9583,-77.071,-162.251,-999.00,-0.92,-999.0,no,yes,no,300234068240820,SVPGHI,AOML,LAURA_BASSI,South
2020-02-05T00:00:00Z,1580860800,2020,0,0,36.0,36.0,-77.062,-162.286,-999.00,-0.84,-999.0,no,yes,no,300234068240820,SVPGHI,AOML,LAURA_BASSI,South
2020-02-05T01:00:02Z,1580864403,2020,1,0,36.0417,36.0417,-77.053,-162.323,-999.00,-0.88,-999.0,no,yes,no,300234068240820,SVPGHI,AOML,LAURA_BASSI,South
2020-02-05T01:59:57Z,1580867997,2020,2,0,36.0833,36.0833,-77.046,-162.374,-999.00,-0.85,-999.0,no,yes,no,300234068240820,SVPGHI,AOML,LAURA_BASSI,South
2020-02-05T03:00:00Z,1580871600,2020,3,0,36.125,36.125,-77.038,-162.423,-999.00,-0.86,-999.0,no,yes,no,300234068240820,SVPGHI,AOML,LAURA_BASSI,South
2020-02-05T04:00:02Z,1580875203,2020,4,0,36.1667,36.1667,-77.028,-162.465,-999.00,-0.82,-999.0,no,yes,no,300234068240820,SVPGHI,AOML,LAURA_BASSI,South
2020-02-05T04:59:57Z,1580878797,2020,5,0,36.2083,36.2083,-77.02,-162.493,-999.00,-0.85,-999.0,no,yes,no,300234068240820,SVPGHI,AOML,LAURA_BASSI,South
2020-02-05T06:00:00Z,1580882400,2020,6,0,36.25,36.25,-77.009,-162.516,-999.00,-0.85,-999.0,no,yes,no,300234068240820,SVPGHI,AOML,LAURA_BASSI,South
2020-02-05T07:00:02Z,1580886003,2020,7,0,36.2917,36.2917,-76.996,-162.548,-999.00,-0.9,-999.0,no,yes,no,300234068240820,SVPGHI,AOML,LAURA_BASSI,South
2020-02-05T07:59:57Z,1580889597,2020,8,0,36.3333,36.3333,-76.986,-162.57,-999.00,-0.87,-999.0,no,yes,no,300234068240820,SVPGHI,AOML,LAURA_BASSI,South
2020-02-05T09:00:00Z,1580893200,2020,9,0,36.375,36.375,-76.982,-162.581,-999.00,-0.87,-999.0,no,yes,no,300234068240820,SVPGHI,AOML,LAURA_BASSI,South
2020-02-05T10:00:02Z,1580896803,2020,10,0,36.4167,36.4167,-76.979,-162.587,-999.00,-0.88,-999.0,no,yes,no,300234068240820,SVPGHI,AOML,LAURA_BASSI,South
2020-02-05T10:59:57Z,1580900397,2020,11,0,36.4583,36.4583,-76.976,-162.602,-999.00,-0.9,-999.0,no,yes,no,300234068240820,SVPGHI,AOML,LAURA_BASSI,South
2020-02-05T12:00:00Z,1580904000,2020,12,0,36.5,36.5,-76.966,-162.631,-999.00,-1.02,-999.0,no,yes,no,300234068240820,SVPGHI,AOML,LAURA_BASSI,South
2020-02-05T13:00:02Z,1580907603,2020,13,0,36.5417,36.5417,-76.956,-162.651,-999.00,-0.94,-999.0,no,yes,no,300234068240820,SVPGHI,AOML,LAURA_BASSI,South
2020-02-05T13:59:57Z,1580911197,2020,14,0,36.5833,36.5833,-76.943,-162.687,-999.00,-0.95,-999.0,no,yes,no,300234068240820,SVPGHI,AOML,LAURA_BASSI,South
2020-02-05T15:00:00Z,1580914800,2020,15,0,36.625,36.625,-76.934,-162.714,-999.00,-0.96,-999.0,no,yes,no,300234068240820,SVPGHI,AOML,LAURA_BASSI,South
2020-02-05T16:00:02Z,1580918403,2020,16,0,36.6667,36.6667,-76.926,-162.734,-999.00,-0.97,-999.0,no,yes,no,300234068240820,SVPGHI,AOML,LAURA_BASSI,South
2020-02-05T16:59:57Z,1580921997,2020,17,0,36.7083,36.7083,-76.919,-162.753,-999.00,-0.94,-999.0,no,yes,no,300234068240820,SVPGHI,AOML,LAURA_BASSI,South
2020-02-05T18:00:00Z,1580925600,2020,18,0,36.75,36.75,-76.912,-162.765,-999.00,-0.95,-999.0,no,yes,no,300234068240820,SVPGHI,AOML,LAURA_BASSI,South
2020-02-05T19:00:02Z,1580929203,2020,19,0,36.7917,36.7917,-76.906,-162.776,-999.00,-0.93,-999.0,no,yes,no,300234068240820,SVPGHI,AOML,LAURA_BASSI,South
2020-02-05T19:59:57Z,1580932797,2020,20,0,36.8333,36.8333,-76.901,-162.789,-999.00,-1.04,-999.0,no,yes,no,300234068240820,SVPGHI,AOML,LAURA_BASSI,South
2020-02-05T21:00:00Z,1580936400,2020,21,0,36.875,36.875,-76.894,-162.802,-999.00,-0.93,-999.0,no,yes,no,300234068240820,SVPGHI,AOML,LAURA_BASSI,South
2020-02-05T22:00:02Z,1580940003,2020,22,0,36.9167,36.9167,-76.888,-162.812,-999.00,-0.92,-999.0,no,yes,no,300234068240820,SVPGHI,AOML,LAURA_BASSI,South
2020-02-05T22:59:57Z,1580943597,2020,23,0,36.9583,36.9583,-76.882,-162.817,-999.00,-0.96,-999.0,no,yes,no,300234068240820,SVPGHI,AOML,LAURA_BASSI,South
2020-02-06T00:00:00Z,1580947200,2020,0,0,37.0,37.0,-76.877,-162.819,-999.00,-0.93,-999.0,no,yes,no,300234068240820,SVPGHI,AOML,LAURA_BASSI,South
2020-02-06T01:00:02Z,1580950803,2020,1,0,37.0417,37.0417,-76.874,-162.83,-999.00,-0.94,-999.0,no,yes,no,300234068240820,SVPGHI,AOML,LAURA_BASSI,South
2020-02-06T01:59:57Z,1580954397,2020,2,0,37.0833,37.0833,-76.871,-162.836,-999.00,-0.92,-999.0,no,yes,no,300234068240820,SVPGHI,AOML,LAURA_BASSI,South
2020-02-06T03:00:00Z,1580958000,2020,3,0,37.125,37.125,-76.869,-162.847,-999.00,-0.97,-999.0,no,yes,no,300234068240820,SVPGHI,AOML,LAURA_BASSI,South
2020-02-06T04:00:02Z,1580961603,2020,4,0,37.1667,37.1667,-76.867,-162.848,-999.00,-1.16,-999.0,no,yes,no,300234068240820,SVPGHI,AOML,LAURA_BASSI,South
2020-02-06T06:00:00Z,1580968800,2020,6,0,37.25,37.25,-76.864,-162.831,-999.00,-0.93,-999.0,no,yes,no,300234068240820,SVPGHI,AOML,LAURA_BASSI,South
2020-02-06T07:00:02Z,1580972403,2020,7,0,37.2917,37.2917,-76.859,-162.814,-999.00,-0.83,-999.0,no,yes,no,300234068240820,SVPGHI,AOML,LAURA_BASSI,South
2020-02-06T07:59:57Z,1580975997,2020,8,0,37.3333,37.3333,-76.854,-162.793,-999.00,-0.84,-999.0,no,yes,no,300234068240820,SVPGHI,AOML,LAURA_BASSI,South
2020-02-06T09:00:00Z,1580979600,2020,9,0,37.375,37.375,-76.848,-162.775,-999.00,-0.85,-999.0,no,yes,no,300234068240820,SVPGHI,AOML,LAURA_BASSI,South
2020-02-06T10:00:02Z,1580983203,2020,10,0,37.4167,37.4167,-76.842,-162.756,-999.00,-0.79,-999.0,no,yes,no,300234068240820,SVPGHI,AOML,LAURA_BASSI,South
2020-02-06T10:59:57Z,1580986797,2020,11,0,37.4583,37.4583,-76.835,-162.749,-999.00,-0.97,-999.0,no,yes,no,300234068240820,SVPGHI,AOML,LAURA_BASSI,South
2020-02-06T12:00:00Z,1580990400,2020,12,0,37.5,37.5,-76.83,-162.759,-999.00,-0.99,-999.0,no,yes,no,300234068240820,SVPGHI,AOML,LAURA_BASSI,South
2020-02-06T13:00:02Z,1580994003,2020,13,0,37.5417,37.5417,-76.823,-162.759,-999.00,-1.01,-999.0,no,yes,no,300234068240820,SVPGHI,AOML,LAURA_BASSI,South
2020-02-06T13:59:57Z,1580997597,2020,14,0,37.5833,37.5833,-76.82,-162.77,-999.00,-1.01,-999.0,no,yes,no,300234068240820,SVPGHI,AOML,LAURA_BASSI,South
2020-02-06T16:00:02Z,1581004803,2020,16,0,37.6667,37.6667,-76.815,-162.763,-999.00,-1.1,-999.0,no,yes,no,300234068240820,SVPGHI,AOML,LAURA_BASSI,South
2020-02-06T16:59:57Z,1581008397,2020,17,0,37.7083,37.7083,-76.811,-162.759,-999.00,-1.17,-999.0,no,yes,no,300234068240820,SVPGHI,AOML,LAURA_BASSI,South
2020-02-06T18:00:00Z,1581012000,2020,18,0,37.75,37.75,-76.805,-162.754,-999.00,-1.21,-999.0,no,yes,no,300234068240820,SVPGHI,AOML,LAURA_BASSI,South
2020-02-06T19:00:02Z,1581015603,2020,19,0,37.7917,37.7917,-76.801,-162.744,-999.00,-1.16,-999.0,no,yes,no,300234068240820,SVPGHI,AOML,LAURA_BASSI,South
2020-02-06T19:59:57Z,1581019197,2020,20,0,37.8333,37.8333,-76.795,-162.735,-999.00,-1.51,-999.0,no,yes,no,300234068240820,SVPGHI,AOML,LAURA_BASSI,South
2020-02-06T21:00:00Z,1581022800,2020,21,0,37.875,37.875,-76.79,-162.733,-999.00,-1.19,-999.0,no,yes,no,300234068240820,SVPGHI,AOML,LAURA_BASSI,South
2020-02-06T22:00:02Z,1581026403,2020,22,0,37.9167,37.9167,-76.783,-162.733,-999.00,-1.15,-999.0,no,yes,no,300234068240820,SVPGHI,AOML,LAURA_BASSI,South
2020-02-06T22:59:57Z,1581029997,2020,23,0,37.9583,37.9583,-76.779,-162.736,-999.00,-0.98,-999.0,no,yes,no,300234068240820,SVPGHI,AOML,LAURA_BASSI,South
2020-02-07T00:00:00Z,1581033600,2020,0,0,38.0,38.0,-76.774,-162.733,-999.00,-1.06,-999.0,no,yes,no,300234068240820,SVPGHI,AOML,LAURA_BASSI,South
2020-02-07T01:00:02Z,1581037203,2020,1,0,38.0417,38.0417,-76.772,-162.737,-999.00,-0.98,-999.0,no,yes,no,300234068240820,SVPGHI,AOML,LAURA_BASSI,South
2020-02-07T01:59:57Z,1581040797,2020,2,0,38.0833,38.0833,-76.77,-162.73,-999.00,-1.12,-999.0,no,yes,no,300234068240820,SVPGHI,AOML,LAURA_BASSI,South
2020-02-07T03:00:00Z,1581044400,2020,3,0,38.125,38.125,-76.769,-162.711,-999.00,-0.92,-999.0,no,yes,no,300234068240820,SVPGHI,AOML,LAURA_BASSI,South
2020-02-07T04:00:02Z,1581048003,2020,4,0,38.1667,38.1667,-76.767,-162.701,-999.00,-0.96,-999.0,no,yes,no,300234068240820,SVPGHI,AOML,LAURA_BASSI,South
2020-02-07T04:59:57Z,1581051597,2020,5,0,38.2083,38.2083,-76.765,-162.692,-999.00,-1.01,-999.0,no,yes,no,300234068240820,SVPGHI,AOML,LAURA_BASSI,South
2020-02-07T06:00:00Z,1581055200,2020,6,0,38.25,38.25,-76.764,-162.689,-999.00,-1.2,-999.0,no,yes,no,300234068240820,SVPGHI,AOML,LAURA_BASSI,South
2020-02-07T07:00:02Z,1581058803,2020,7,0,38.2917,38.2917,-76.762,-162.683,-999.00,-1.22,-999.0,no,yes,no,300234068240820,SVPGHI,AOML,LAURA_BASSI,South
2020-02-07T07:59:57Z,1581062397,2020,8,0,38.3333,38.3333,-76.758,-162.676,-999.00,-1.24,-999.0,no,yes,no,300234068240820,SVPGHI,AOML,LAURA_BASSI,South
2020-02-07T09:00:00Z,1581066000,2020,9,0,38.375,38.375,-76.755,-162.674,-999.00,-1.19,-999.0,no,yes,no,300234068240820,SVPGHI,AOML,LAURA_BASSI,South
2020-02-07T10:00:02Z,1581069603,2020,10,0,38.4167,38.4167,-76.754,-162.673,-999.00,-1.16,-999.0,no,yes,no,300234068240820,SVPGHI,AOML,LAURA_BASSI,South
2020-02-07T10:59:57Z,1581073197,2020,11,0,38.4583,38.4583,-76.753,-162.673,-999.00,-1.09,-999.0,no,yes,no,300234068240820,SVPGHI,AOML,LAURA_BASSI,South
2020-02-07T12:00:00Z,1581076800,2020,12,0,38.5,38.5,-76.753,-162.669,-999.00,-1.27,-999.0,no,yes,no,300234068240820,SVPGHI,AOML,LAURA_BASSI,South
2020-02-07T13:00:02Z,1581080403,2020,13,0,38.5417,38.5417,-76.75,-162.663,-999.00,-1.26,-999.0,no,yes,no,300234068240820,SVPGHI,AOML,LAURA_BASSI,South
2020-02-07T13:59:57Z,1581083997,2020,14,0,38.5833,38.5833,-76.749,-162.656,-999.00,-1.59,-999.0,no,yes,no,300234068240820,SVPGHI,AOML,LAURA_BASSI,South
2020-02-07T15:00:00Z,1581087600,2020,15,0,38.625,38.625,-76.745,-162.648,-999.00,-1.24,-999.0,no,yes,no,300234068240820,SVPGHI,AOML,LAURA_BASSI,South
2020-02-07T16:00:02Z,1581091203,2020,16,0,38.6667,38.6667,-76.742,-162.635,-999.00,-1.72,-999.0,no,yes,no,300234068240820,SVPGHI,AOML,LAURA_BASSI,South
2020-02-07T16:59:57Z,1581094797,2020,17,0,38.7083,38.7083,-76.738,-162.629,-999.00,-1.69,-999.0,no,yes,no,300234068240820,SVPGHI,AOML,LAURA_BASSI,South
2020-02-07T18:00:00Z,1581098400,2020,18,0,38.75,38.75,-76.735,-162.628,-999.00,-1.71,-999.0,no,yes,no,300234068240820,SVPGHI,AOML,LAURA_BASSI,South
2020-02-07T19:00:02Z,1581102003,2020,19,0,38.7917,38.7917,-76.734,-162.623,-999.00,-1.74,-999.0,no,yes,no,300234068240820,SVPGHI,AOML,LAURA_BASSI,South
2020-02-07T19:59:57Z,1581105597,2020,20,0,38.8333,38.8333,-76.731,-162.623,-999.00,-1.72,-999.0,no,yes,no,300234068240820,SVPGHI,AOML,LAURA_BASSI,South
2020-02-07T21:00:00Z,1581109200,2020,21,0,38.875,38.875,-76.731,-162.619,-999.00,-1.69,-999.0,no,yes,no,300234068240820,SVPGHI,AOML,LAURA_BASSI,South
2020-02-07T22:00:02Z,1581112803,2020,22,0,38.9167,38.9167,-76.728,-162.615,-999.00,-1.56,-999.0,no,yes,no,300234068240820,SVPGHI,AOML,LAURA_BASSI,South
2020-02-07T22:59:57Z,1581116397,2020,23,0,38.9583,38.9583,-76.725,-162.617,-999.00,-1.5,-999.0,no,yes,no,300234068240820,SVPGHI,AOML,LAURA_BASSI,South
2020-02-08T01:00:02Z,1581123603,2020,1,0,39.0417,39.0417,-76.722,-162.617,-999.00,-1.65,-999.0,no,yes,no,300234068240820,SVPGHI,AOML,LAURA_BASSI,South
2020-02-08T03:00:00Z,1581130800,2020,3,0,39.125,39.125,-76.713,-162.605,-999.00,-1.24,-999.0,no,yes,no,300234068240820,SVPGHI,AOML,LAURA_BASSI,South
2020-02-08T04:00:02Z,1581134403,2020,4,0,39.1667,39.1667,-76.712,-162.614,-999.00,-1.3,-999.0,no,yes,no,300234068240820,SVPGHI,AOML,LAURA_BASSI,South
2020-02-08T04:59:57Z,1581137997,2020,5,0,39.2083,39.2083,-76.711,-162.616,-999.00,-1.44,-999.0,no,yes,no,300234068240820,SVPGHI,AOML,LAURA_BASSI,South
2020-02-08T06:00:00Z,1581141600,2020,6,0,39.25,39.25,-76.71,-162.619,-999.00,-1.13,-999.0,no,yes,no,300234068240820,SVPGHI,AOML,LAURA_BASSI,South
2020-02-08T07:00:02Z,1581145203,2020,7,0,39.2917,39.2917,-76.711,-162.615,-999.00,-1.14,-999.0,no,yes,no,300234068240820,SVPGHI,AOML,LAURA_BASSI,South
2020-02-08T07:59:57Z,1581148797,2020,8,0,39.3333,39.3333,-76.711,-162.601,-999.00,-1.35,-999.0,no,yes,no,300234068240820,SVPGHI,AOML,LAURA_BASSI,South
2020-02-08T09:00:00Z,1581152400,2020,9,0,39.375,39.375,-76.707,-162.585,-999.00,-1.76,-999.0,no,yes,no,300234068240820,SVPGHI,AOML,LAURA_BASSI,South
2020-02-08T10:00:02Z,1581156003,2020,10,0,39.4167,39.4167,-76.703,-162.577,-999.00,-1.74,-999.0,no,yes,no,300234068240820,SVPGHI,AOML,LAURA_BASSI,South
2020-02-08T10:59:57Z,1581159597,2020,11,0,39.4583,39.4583,-76.699,-162.576,-999.00,-1.74,-999.0,no,yes,no,300234068240820,SVPGHI,AOML,LAURA_BASSI,South
2020-02-08T13:00:02Z,1581166803,2020,13,0,39.5417,39.5417,-76.693,-162.577,-999.00,-1.4,-999.0,no,yes,no,300234068240820,SVPGHI,AOML,LAURA_BASSI,South
2020-02-08T15:00:00Z,1581174000,2020,15,0,39.625,39.625,-76.682,-162.577,-999.00,-1.47,-999.0,no,yes,no,300234068240820,SVPGHI,AOML,LAURA_BASSI,South
2020-02-08T16:00:02Z,1581177603,2020,16,0,39.6667,39.6667,-76.676,-162.573,-999.00,-1.22,-999.0,no,yes,no,300234068240820,SVPGHI,AOML,LAURA_BASSI,South
2020-02-08T16:59:57Z,1581181197,2020,17,0,39.7083,39.7083,-76.669,-162.572,-999.00,-1.32,-999.0,no,yes,no,300234068240820,SVPGHI,AOML,LAURA_BASSI,South
2020-02-08T18:00:00Z,1581184800,2020,18,0,39.75,39.75,-76.661,-162.575,-999.00,-1.15,-999.0,no,yes,no,300234068240820,SVPGHI,AOML,LAURA_BASSI,South
2020-02-08T19:00:02Z,1581188403,2020,19,0,39.7917,39.7917,-76.653,-162.585,-999.00,-1.31,-999.0,no,yes,no,300234068240820,SVPGHI,AOML,LAURA_BASSI,South
2020-02-08T19:59:57Z,1581191997,2020,20,0,39.8333,39.8333,-76.645,-162.6,-999.00,-1.18,-999.0,no,yes,no,300234068240820,SVPGHI,AOML,LAURA_BASSI,South
2020-02-08T21:00:00Z,1581195600,2020,21,0,39.875,39.875,-76.639,-162.615,-999.00,-1.25,-999.0,no,yes,no,300234068240820,SVPGHI,AOML,LAURA_BASSI,South
2020-02-08T22:00:02Z,1581199203,2020,22,0,39.9167,39.9167,-76.635,-162.632,-999.00,-1.09,-999.0,no,yes,no,300234068240820,SVPGHI,AOML,LAURA_BASSI,South
2020-02-08T22:59:57Z,1581202797,2020,23,0,39.9583,39.9583,-76.63,-162.652,-999.00,-1.26,-999.0,no,yes,no,300234068240820,SVPGHI,AOML,LAURA_BASSI,South
2020-02-09T00:00:00Z,1581206400,2020,0,0,40.0,40.0,-76.628,-162.678,-999.00,-1.17,-999.0,no,yes,no,300234068240820,SVPGHI,AOML,LAURA_BASSI,South
2020-02-09T01:00:02Z,1581210003,2020,1,0,40.0417,40.0417,-76.627,-162.703,-999.00,-1.03,-999.0,no,yes,no,300234068240820,SVPGHI,AOML,LAURA_BASSI,South
2020-02-09T01:59:57Z,1581213597,2020,2,0,40.0833,40.0833,-76.628,-162.72,-999.00,-1.11,-999.0,no,yes,no,300234068240820,SVPGHI,AOML,LAURA_BASSI,South
2020-02-09T03:00:00Z,1581217200,2020,3,0,40.125,40.125,-76.628,-162.733,-999.00,-1.16,-999.0,no,yes,no,300234068240820,SVPGHI,AOML,LAURA_BASSI,South
2020-02-09T04:00:02Z,1581220803,2020,4,0,40.1667,40.1667,-76.628,-162.74,-999.00,-1.22,-999.0,no,yes,no,300234068240820,SVPGHI,AOML,LAURA_BASSI,South
2020-02-09T04:59:57Z,1581224397,2020,5,0,40.2083,40.2083,-76.628,-162.744,-999.00,-1.26,-999.0,no,yes,no,300234068240820,SVPGHI,AOML,LAURA_BASSI,South
2020-02-09T06:00:00Z,1581228000,2020,6,0,40.25,40.25,-76.625,-162.745,-999.00,-1.2,-999.0,no,yes,no,300234068240820,SVPGHI,AOML,LAURA_BASSI,South
2020-02-09T07:00:02Z,1581231603,2020,7,0,40.2917,40.2917,-76.621,-162.752,-999.00,-1.09,-999.0,no,yes,no,300234068240820,SVPGHI,AOML,LAURA_BASSI,South
2020-02-09T07:59:57Z,1581235197,2020,8,0,40.3333,40.3333,-76.617,-162.761,-999.00,-1.28,-999.0,no,yes,no,300234068240820,SVPGHI,AOML,LAURA_BASSI,South
2020-02-09T09:00:00Z,1581238800,2020,9,0,40.375,40.375,-76.613,-162.775,-999.00,-1.28,-999.0,no,yes,no,300234068240820,SVPGHI,AOML,LAURA_BASSI,South
2020-02-09T10:00:02Z,1581242403,2020,10,0,40.4167,40.4167,-76.609,-162.794,-999.00,-1.47,-999.0,no,yes,no,300234068240820,SVPGHI,AOML,LAURA_BASSI,South
2020-02-09T10:59:57Z,1581245997,2020,11,0,40.4583,40.4583,-76.606,-162.815,-999.00,-1.3,-999.0,no,yes,no,300234068240820,SVPGHI,AOML,LAURA_BASSI,South
2020-02-09T12:00:00Z,1581249600,2020,12,0,40.5,40.5,-76.602,-162.838,-999.00,-1.17,-999.0,no,yes,no,300234068240820,SVPGHI,AOML,LAURA_BASSI,South
2020-02-09T13:00:02Z,1581253203,2020,13,0,40.5417,40.5417,-76.601,-162.859,-999.00,-1.18,-999.0,no,yes,no,300234068240820,SVPGHI,AOML,LAURA_BASSI,South
2020-02-09T13:59:57Z,1581256797,2020,14,0,40.5833,40.5833,-76.599,-162.869,-999.00,-1.15,-999.0,no,yes,no,300234068240820,SVPGHI,AOML,LAURA_BASSI,South
2020-02-09T15:00:00Z,1581260400,2020,15,0,40.625,40.625,-76.599,-162.87,-999.00,-1.27,-999.0,no,yes,no,300234068240820,SVPGHI,AOML,LAURA_BASSI,South
2020-02-09T16:00:02Z,1581264003,2020,16,0,40.6667,40.6667,-76.598,-162.863,-999.00,-1.18,-999.0,no,yes,no,300234068240820,SVPGHI,AOML,LAURA_BASSI,South
2020-02-09T16:59:57Z,1581267597,2020,17,0,40.7083,40.7083,-76.598,-162.851,-999.00,-1.42,-999.0,no,yes,no,300234068240820,SVPGHI,AOML,LAURA_BASSI,South
2020-02-09T18:00:00Z,1581271200,2020,18,0,40.75,40.75,-76.595,-162.846,-999.00,-1.43,-999.0,no,yes,no,300234068240820,SVPGHI,AOML,LAURA_BASSI,South
2020-02-09T19:00:02Z,1581274803,2020,19,0,40.7917,40.7917,-76.592,-162.853,-999.00,-1.45,-999.0,no,yes,no,300234068240820,SVPGHI,AOML,LAURA_BASSI,South